This is the latest recevied weather packets stored in our database for station/object DL2GKM-6. If no packets are shown the sender has not sent any weather packets the latest 1 day(s).
| Time | Temp. | Humidity | Pressure | Rain* | Wind** | Luminosity | Snow |
|---|---|---|---|---|---|---|---|
| 1778025926 | 10.56° C | 82% | 1007.5 hPa | 128.78 mm | 1.34 m/s, 200° | - | - |
| 1778025641 | 10.56° C | 82% | 1007.6 hPa | 128.78 mm | 0 m/s | - | - |
| 1778025381 | 10.56° C | 82% | 1007.6 hPa | 128.78 mm | 0 m/s | - | - |
| 1778025101 | 10.56° C | 82% | 1007.6 hPa | 128.78 mm | 0 m/s | - | - |
| 1778024811 | 10.56° C | 83% | 1007.7 hPa | 128.78 mm | 0 m/s | - | - |
| 1778024526 | 10.56° C | 83% | 1007.7 hPa | 128.78 mm | 0 m/s | - | - |
| 1778024226 | 10.56° C | 83% | 1007.7 hPa | 128.78 mm | 0 m/s | - | - |
| 1778023955 | 10.56° C | 83% | 1007.7 hPa | 128.78 mm | 0 m/s | - | - |
| 1778023691 | 10.56° C | 83% | 1007.8 hPa | 128.78 mm | 0 m/s | - | - |
| 1778023395 | 10.56° C | 83% | 1007.9 hPa | 128.78 mm | 0 m/s | - | - |
| 1778023114 | 10.56° C | 83% | 1007.8 hPa | 128.78 mm | 1.34 m/s, 116° | - | - |
| 1778022856 | 10.56° C | 83% | 1007.8 hPa | 128.78 mm | 2.24 m/s, 193° | - | - |
| 1778022611 | 10.56° C | 83% | 1007.8 hPa | 128.78 mm | 3.13 m/s, 158° | - | - |
| 1778022336 | 10.56° C | 83% | 1007.8 hPa | 128.78 mm | 2.68 m/s, 185° | - | - |
| 1778022051 | 10.56° C | 83% | 1007.8 hPa | 128.78 mm | 0 m/s | - | - |
| 1778021755 | 10.56° C | 83% | 1007.9 hPa | 128.78 mm | 1.34 m/s, 169° | - | - |
| 1778021454 | 10.56° C | 83% | 1007.9 hPa | 128.78 mm | 2.24 m/s, 151° | - | - |
| 1778021184 | 11.11° C | 83% | 1007.9 hPa | 128.78 mm | 1.79 m/s, 171° | - | - |
| 1778020901 | 11.11° C | 83% | 1007.8 hPa | 128.78 mm | 2.68 m/s, 182° | - | - |
| 1778020611 | 11.11° C | 83% | 1007.8 hPa | 128.78 mm | 1.79 m/s, 160° | - | - |
| 1778020361 | 11.11° C | 83% | 1007.8 hPa | 128.78 mm | 2.68 m/s, 172° | - | - |
| 1778020061 | 11.11° C | 83% | 1007.8 hPa | 128.78 mm | 2.68 m/s, 152° | - | - |
| 1778019814 | 11.11° C | 83% | 1007.7 hPa | 128.78 mm | 3.13 m/s, 140° | - | - |
| 1778019575 | 11.11° C | 83% | 1007.8 hPa | 128.78 mm | 4.02 m/s, 172° | - | - |
| 1778019301 | 11.11° C | 83% | 1007.8 hPa | 128.78 mm | 1.79 m/s, 227° | - | - |
* Rain latest 24 hours (hover to see other rain measurements)
** Current wind speed in m/s (hover to see current wind gust speed)